Content
SEND FEEDBACK

Daily
Averages
Monthly
Summary
Ukraine

UZHGOROD, UKRAINE


Home > Europe > Ukraine
Elevation: 387 feet     Latitude: 48 38N     Longitude: 022 16E

WEATHER
 
SELECT A DAY
Number of Records: 124,005;   Date Range: 6/10/02 - 10/24/14
 
SHARE

PRINT THIS DATA

[ ← Previous Day ]
WEATHER ALMANAC - JANUARY 3, 2013
[ Next Day → ]
[ °C ]   °F
Weather ElementAverageHighLow
Temperature28.7 °F32 °F (9:00 pm)26.6 °F (6:30 am)
Dewpoint28.3 °F30.2 °F (4:00 pm)26.6 °F (6:30 am)
Humidity98.5 %100 % (6:30 am)93 % (11:00 am)
Barometer30.41 in30.48 in (7:00 am)30.30 in (8:30 pm)
Wind Speed7.6 mph11.2 mph (3:30 pm)
Weather ElementAverage
Visibility0.9 mi
Wind DirectionSSE (141.9 °)

Weather ElementTotal
Precipitation---
Heating Degree Days35.7 (Base 65)
Averaged from 32 records on January 3, 2013
WEATHER CONDITIONS BREAKOUT
WIND DIRECTION BREAKOUT
WEATHER BY HOUR - JANUARY 3, 2013
[ °C ]   °F
Local TimeTemperatureDewpointHumidityBarometerVisibilityWind DirectionWind SpeedGust SpeedPrecipitationEventsConditions
6:30 AM26.6 °F26.6 °F100 %30.45 in0.8 miSE (140°)4.5 mphOvercast
7:00 AM26.6 °F26.6 °F100 %30.48 in0.8 miCalmOvercast
7:30 AM26.6 °F26.6 °F100 %30.48 in0.8 miSSE (150°)4.5 mphOvercast
8:00 AM26.6 °F26.6 °F100 %30.48 in0.8 miSSE (160°)4.5 mphOvercast
8:30 AM26.6 °F26.6 °F100 %30.48 in0.8 miSouth (170°)6.7 mphOvercast
9:00 AM26.6 °F26.6 °F100 %30.48 in0.8 miSouth (170°)6.7 mphOvercast
9:30 AM26.6 °F26.6 °F100 %30.48 in0.4 miSouth (170°)6.7 mphFogLight Freezing Fog
10:00 AM26.6 °F26.6 °F100 %30.48 in0.2 miSouth (170°)4.5 mphFog-SnowLight Snow
10:30 AM26.6 °F26.6 °F100 %30.48 in0.2 miSSE (160°)6.7 mphFog-SnowLight Snow
11:00 AM28.4 °F26.6 °F93 %30.48 in0.2 miSSE (160°)6.7 mphFogLight Freezing Fog
11:30 AM28.4 °F26.6 °F93 %30.48 in0.4 miSSE (160°)6.7 mphFogLight Freezing Fog
12:00 PM28.4 °F26.6 °F93 %30.48 in0.4 miSSE (150°)6.7 mphFogLight Freezing Drizzle
12:30 PM28.4 °F26.6 °F93 %30.48 in0.7 miSouth (170°)4.5 mphLight Freezing Drizzle
1:00 PM28.4 °F28.4 °F100 %30.45 in0.7 miSE (140°)6.7 mphLight Freezing Drizzle
1:30 PM28.4 °F28.4 °F100 %30.45 in0.7 miSE (130°)8.9 mphLight Freezing Drizzle
2:00 PM28.4 °F28.4 °F100 %30.42 in0.7 miSE (140°)8.9 mphLight Freezing Drizzle
2:12 PM28.4 °F28.4 °F100 %30.42 in0.7 miSE (140°)8.9 mphLight Freezing Drizzle
2:30 PM28.4 °F28.4 °F100 %30.42 in0.7 miSE (140°)6.7 mphLight Freezing Drizzle
3:00 PM30.2 °F28.4 °F93 %30.39 in0.7 miSE (140°)6.7 mphLight Freezing Drizzle
3:30 PM30.2 °F28.4 °F93 %30.39 in0.6 miSSE (160°)11.2 mphSnowSnow
4:00 PM30.2 °F30.2 °F100 %30.36 in0.7 miSE (140°)11.2 mphSnowSnow
4:30 PM30.2 °F30.2 °F100 %30.36 in0.8 miSSE (160°)6.7 mphSnowSnow
5:00 PM30.2 °F30.2 °F100 %30.36 in1.2 miSE (140°)11.2 mphSnowSnow
5:15 PM30.2 °F30.2 °F100 %30.36 inESE (120°)8.9 mphSnowLight Snow
5:30 PM30.2 °F30.2 °F100 %30.36 in3.1 miSE (130°)8.9 mphOvercast
6:00 PM30.2 °F30.2 °F100 %30.36 in3.1 miSE (130°)11.2 mphSnowLight Snow
6:30 PM30.2 °F30.2 °F100 %30.33 inESE (120°)8.9 mphOvercast
7:00 PM30.2 °F30.2 °F100 %30.33 in0.8 miSE (130°)11.2 mphSnowSnow
7:30 PM30.2 °F30.2 °F100 %30.33 in0.8 miSE (130°)8.9 mphSnowSnow
8:00 PM30.2 °F30.2 °F100 %30.33 in0.8 miSE (140°)6.7 mphSnowSnow
8:30 PM30.2 °F30.2 °F100 %30.30 in0.8 miSE (140°)11.2 mphSnowSnow
9:00 PM32.0 °F30.2 °F93 %30.30 in1.9 miSE (140°)11.2 mphSnowLight Snow
Hourly data recorded from UKLU, located miles away from Uzhgorod, Ukraine







STORIES FROM OUR PARTNERS